Regional Weather Roundup
Issued by NWS Wakefield, VA

Home | Current Version | Previous Version | Graphics & Text | Print | Product List | Glossary On
Versions: 1 2 3 4 5 6 7 8 9 10 11 12 13 14 15 16 17 18 19 20 21 22 23 24 25 26 27
000
ASUS41 KAKQ 280014
RWRAKQ

REGIONAL WEATHER ROUNDUP
NATIONAL WEATHER SERVICE WAKEFIELD VA
800 PM EDT WED APR 27 2016

Note: "fair" indicates few or no clouds below 12,000 feet with no
significant weather and/or obstructions to visibility. * = Denotes
station may not report precipitation (e.g., rain,snow,etc.),
thunder or fog.

VAZ042-051-052>054-056-280100-
NORTHERN VIRGINIA

CITY           SKY/WX    TMP DP  RH WIND       PRES   REMARKS
WASH NATIONAL  CLOUDY    56  50  80 E8        29.92S
DULLES         CLOUDY    55  50  83 E6        29.91R
FORT BELVOIR   MOCLDY    55  50  83 CALM      29.91R
QUANTICO       CLOUDY    58  52  80 E9        29.92R
FREDERICKSBRG* CLOUDY    57  57 100 NE3       29.90R
STAFFORD*      CLOUDY    56  52  88 NE3       29.95R
WARRENTON      CLOUDY    58  49  74 E6        29.89S
CULPEPER*      CLOUDY    58  54  86 CALM      29.91R
MANASSAS*      CLOUDY    57  52  82 CALM      29.90S
LEESBURG*      CLOUDY    57  54  88 E5        29.92S
WINCHESTER     LGT RAIN  54  52  94 N3        29.91S
FRONT ROYAL*   CLOUDY    55  52  88 N5        29.90R
LURAY*         CLOUDY    59  55  88 NE6       29.88R
$$

VAZ048-049-060>072-079>083-280100-
CENTRAL AND SOUTH CENTRAL VIRGINIA

CITY           SKY/WX    TMP DP  RH WIND       PRES   REMARKS
RICHMOND       LGT RAIN  59  56  89 NE8       29.88R
CHESTERFIELD*  CLOUDY    63  46  55 NE5       29.89R
PETERSBURG*    CLOUDY    67  59  75 NE7       29.87R
HANOVER        CLOUDY    58  53  84 NE5       29.89S
TAPPAHANNOCK*  CLOUDY    57  55  92 E6        29.90S
QUINTON*       CLOUDY    60  56  85 NE7       29.88R
CHARLOTTSVILLE CLOUDY    61  57  87 NE8       29.88R
GORDONSVILLE*  CLOUDY    58  57  96 NE3       29.89R
ORANGE*        CLOUDY    59  57  94 NE3       29.91R
LOUISA*        CLOUDY    61  59  94 NE6       29.88R
BUMPASS*       CLOUDY    57  56  95 E3        29.88S
FARMVILLE*     MOCLDY    64  61  90 NE9       29.86R
CREWE*         CLOUDY    65  63  92 N3        29.86R
FORT PICKETT*  NOT AVBL
CHASE CITY*    CLOUDY    68  66  94 CALM      29.84S
CLARKSVILLE*   MOCLDY    66  66 100 CALM      29.84R
SOUTH HILL*    CLOUDY    67  66  99 W5        29.90R
LAWRENCEVILLE* MOCLDY    67  67 100 CALM      29.84S
EMPORIA*       LGT RAIN  64  64 100 E3        29.87R
$$

VAZ088>098-280100-
SOUTHEAST VIRGINIA

CITY           SKY/WX    TMP DP  RH WIND       PRES   REMARKS
NORFOLK        CLOUDY    55  51  86 E13       29.88R
VIRGINIA BEACH NOT AVBL
NORFOLK NAVAL  CLOUDY    55  53  93 E13       29.91R
WEST POINT*    CLOUDY    59  55  86 E9        29.90R
SALUDA*        CLOUDY    57  55  91 NE5       29.89S
NEWPORT NEWS   LGT RAIN  57  54  89 E10       29.88R
LANGLEY AFB    CLOUDY    56  54  92 E14       29.88R
FORT EUSTIS    CLOUDY    59  55  88 E7        29.87R
WILLIAMSBURG*  MOCLDY    63  57  82 NE3       29.89R
HR EXEC AP*    CLOUDY    57  52  82 E8        29.90R
FRANKLIN*      TSTM      57  55  91 NE9       29.89R
US460-WAKEFLD  LGT RAIN  62  56  80 CALM      29.91R
$$

VAZ020-022-025-037-045-280100-
WEST CENTRAL AND SOUTHWEST VIRGINIA

CITY           SKY/WX    TMP DP  RH WIND       PRES   REMARKS
STAUNTON*      CLOUDY    66  62  86 N7        29.88S
WAYNESBORO*    CLOUDY    62  59  91 MISG      29.87R
HOT SPRINGS VA NOT AVBL
LYNCHBURG      CLOUDY    68  65  90 CALM      29.86R
DANVILLE       FAIR      68  67  96 NE6       29.82S
SOUTH BOSTON*  CLOUDY    67  65  94 NE3       29.83F
MARTINSVILLE   CLOUDY    68  64  89 CALM      29.85S
ROANOKE        CLOUDY    70  65  84 SE3       29.86R
BLACKSBURG     CLOUDY    69  61  75 CALM      29.91S
DUBLIN*        MOCLDY    69  64  84 CALM      29.89S
MARION*        FAIR      70  57  64 CALM      29.91S
HILLSVILLE*    LGT RAIN  61  61  98 SE3       29.90S
RICHLANDS*     CLOUDY    65  42  42 E5        29.89F
WISE*          FAIR      66  54  63 N5        29.90R
ABINGDON*      FAIR      73  59  62 E5        29.86R
$$

MDZ021>025-VAZ099-100-280100-
SOUTHERN MARYLAND AND THE DELMARVA PENINSULA

CITY           SKY/WX    TMP DP  RH WIND       PRES   REMARKS
PATUXENT RIVER CLOUDY    54  50  86 NE7       29.91R
BAY BRIDGE APT NOT AVBL
LEONARDTOWN    NOT AVBL
DOVER          CLOUDY    52  49  87 SE3       29.91F
GEORGETOWN     CLOUDY    51  44  77 E5        29.93S
EASTON         CLOUDY   N/A N/A N/A E3        29.96R
CAMBRIDGE      CLOUDY    52  46  82 NE3       29.92R
SALISBURY      CLOUDY    51  46  83 NE9       29.91R
OCEAN CITY     CLOUDY    50  45  83 NE9       29.92S
WALLOPS ISLAND CLOUDY    52  48  86 NE13      29.91R
ACCOMACK*      CLOUDY   N/A N/A N/A E10       29.90R
$$

NCZ012>017-030>032-280100-
NORTH CENTRAL AND EASTERN NORTH CAROLINA

CITY           SKY/WX    TMP DP  RH WIND       PRES   REMARKS
ROANOKE RAPIDS LGT RAIN  66  63  88 N20G26    29.84R
RALEIGH        MOCLDY    76  62  62 N8G17     29.82R
ELIZABETH CITY CLOUDY    60  57  89 NE13      29.86R
AHOSKIE*       LGT RAIN  65  63  92 N7        29.82R
EDENTON*       PTCLDY    67  60  79 E6G17     29.83S
CURRITUCK*     CLOUDY    59  57  95 NE9       29.87R
KILL DEVIL HLS CLEAR     60  56  89 N5        29.83R
MANTEO         NOT AVBL
CAPE HATTERAS  CLEAR     70  66  87 SW13      29.86R
TARBORO*       FAIR      81  60  48 SW3       29.81R
GOLDSBORO      CLEAR     82  61  47 SW7       29.80R
WASHINGTON     CLEAR     78  65  63 S7        29.81R
GREENVILLE     CLEAR     79  61  53 SW3       29.83R
NEW BERN       CLEAR     74  60  61 S9        29.85R
WILMINGTON     CLEAR     73  60  63 SW16G24   29.87R
$$

VAZ048-280100-
ELSEWHERE

CITY           SKY/WX    TMP DP  RH WIND       PRES   REMARKS
HARRISBURG PA  CLOUDY    54  48  80 SW5       29.91S FOG
BALTIMORE      CLOUDY    54  47  77 SE6       29.91F
ANNAPOLIS      CLOUDY    54  49  83 E3        29.92S
ANDREWS AFB    CLOUDY    53  49  87 NE7       29.91S
PHILADELPHIA   MOCLDY    54  44  69 SW5       29.92S
HENDERSON NC   HVY RAIN  66  66 100 NW3G17    29.86R
GREENSBORO     CLOUDY    73  61  65 NE5       29.82R
ROCKY MOUNT    MOCLDY    79  60  52 S6        29.80R
$$

VAZ100-280100-
MARINE

STATION/POSITION TIME  TEMP    WIND        PRES    WAVE   SWELL
                       AIR SEA DIR/SP/G            HT/PER HT/PER
                 (UTC) (F)     (DEG/KT/KT) (MB)    (FT/S) (FT/S)
BRANDYWINE LGT   2300                      1013.4R
CAPE MAY NJ      2300   50 59              1013.2R
LEWES DE         2300      56              1013.2F
15NM E FENWICK I 2350   50 52              1013.0F   4/ 6
OCEAN-CITY-INLET 2300   51 55              1012.4F
WACHAPREAGUE VA  2300   52 65              1011.8R
THOMAS POINT MD  0000   54 58   70/  5/  6 1014.5S
GOOSES REEF MD   0000   55 59   70/  8/ 10 1013.9S   1
COVE POINT MD    2300   53                 1013.3R
SOLOMONS ISLAND  2300   55 61                N/A
BISHOPS HEAD MD  2300   54 63              1011.6F
POTOMAC MD       0000   56 59   60/ 10/ 12 1011.7R   1
CAMBRIDGE MD     2300   53 63              1012.1F
LEWISETTA VA     2300   56 62              1011.8R
RAPPAHANNOCK LGT 2300                      1012.2R
STINGRAY PT      0000   58 63   70/ 10/ 12 1012.4R   2/ 3
YORK RVR RNG VA  2300   57                 1010.7S
YORKTOWN VA      2300   58 59              1011.1R
JAMESTOWN VA     0000   60 68   60/  6/ 12   N/A     1
DOMINION TERM VA 2300   57                 1011.4R
KIPTOPEKE VA     2300      61                N/A
CHES BAY BRIDGE  2300   53 56              1011.1S
CAPE HENRY VA    2300   53                   N/A
CHESAPEAKE LGHT  2300   53      70/ 16/ 17 1012.1R
WILLOUBY STN VA  2300   55                 1012.3R
CAPE HENRY BUOY  2312      58                N/A     4/ 5
CAPE CHARLES BUO 2326      56                N/A     4/ 4   2/12
OFFSHORE WE BUOY 2321      56                N/A     4/ 7   2/ 7
64NM E OF VA BCH 2350   54 54   40/ 12/ 14 1011.1R   4/ 7   3/ 7
DUCK PIER NC     2300   57 61              1010.2S
44100 DUCK FRF   2324      59                N/A     4/ 6
44056 DUCK FRF   2311      58                N/A     3/ 6
OREGON INLET NC  2300   70 71              1010.0R
HATTERAS NC      2300   71 67              1010.4F
DIAMOND SHLS NC  2350   73 71  210/ 17/ 21 1011.1F   4/ 5   2/12
CAPE LOOKOUT NC  0000   69     210/  9/ 11 1011.4R
$$




USA.gov is the U.S. government's official web portal to all federal, state and local government web resources and services.